Tracking 29069 objects as of 18-Jul-2024
HD Live streaming from Space Station
objects crossing your sky now

XSS 10

Track XSS 10 now!
10-day predictions
XSS 10 is classified as:


NORAD ID: 27664
Int'l Code: 2003-005B
Perigee: 509.3 km
Apogee: 733.8 km
Inclination: 39.7 °
Period: 97.0 minutes
Semi major axis: 6992 km
RCS: 0.183 m2 (medium)
Launch date: January 29, 2003
Source: United States (US)
Launch site: AIR FORCE EASTERN TEST RANGE (AFETR)
Your satellite tracking list
Your tracking list is empty




NASA's NSSDC Master Catalog

Two Line Element Set (TLE):
1 27664U 03005B   24199.99392946  .00006290  00000-0  59227-3 0  9994
2 27664  39.7480  35.3036 0160497 170.6420 189.7412 14.84744348158615
Source of the keplerian elements: AFSPC